RH
5 5 5 5 6 6 6 6 7 7 7 8 8 8 8 7 7 8 8 8 9 8 8 8 8 9 9 9 9 8 8 10 10 11 10 8 7 8 8 8 8 12 14 17 20 22 26 26 25 26 32 42 45 48 54 57 59 60 63 67 65 65 64 64 65 63 62 62 63 64 64 65 63 63 62 64 68 65 60 58 61 64 64 68 71 68 66 67
6 6 5 5 5 5 5 5 6 6 6 7 7 8 7 7 7 7 7 8 8 8 8 8 8 8 9 9 9 9 8 9 10 11 10 8 7 7 8 8 7 9 11 14 16 20 26 28 27 27 35 43 42 46 51 52 56 57 58 63 64 61 59 60 64 63 62 62 62 60 63 63 62 62 60 63 68 64 57 56 60 63 63 65 69 68 66 67
6 6 5 5 5 5 5 5 5 5 5 6 6 6 7 7 7 7 7 7 7 8 8 8 8 8 8 9 9 9 9 10 11 11 10 8 8 7 6 7 7 7 8 10 12 15 20 25 25 28 36 40 39 44 48 49 52 53 56 63 62 58 58 59 61 62 62 63 62 59 61 61 58 58 58 62 67 63 57 57 58 61 61 61 65 67 65 66
6 6 5 5 5 5 4 4 4 4 4 4 5 5 6 6 7 7 7 7 7 7 7 8 8 7 8 8 9 9 11 13 12 11 10 10 9 8 7 7 7 7 7 8 10 11 15 20 22 27 35 36 36 39 43 45 48 51 56 61 59 56 58 58 58 62 62 61 63 63 62 62 59 58 56 59 63 62 59 58 57 58 58 56 60 63 63 66
6 6 6 5 5 5 5 4 4 4 4 4 4 4 4 5 6 6 7 7 7 8 8 8 8 8 8 8 9 10 12 14 13 11 10 9 9 8 7 6 6 6 7 8 8 10 12 16 21 27 31 32 33 35 37 40 43 47 52 57 57 55 57 57 57 60 60 59 61 63 62 62 60 58 57 56 57 58 59 59 55 54 56 53 54 59 61 65
6 6 6 6 6 6 5 5 5 4 4 4 4 3 3 4 4 6 7 8 7 8 9 9 8 8 8 8 10 10 12 13 13 13 11 9 9 8 7 6 6 6 7 7 7 9 10 14 21 26 27 29 29 32 36 37 40 44 47 52 54 54 55 56 57 58 58 58 59 59 59 61 59 56 55 56 55 56 59 60 55 52 54 50 51 55 58 63
6 6 6 6 5 5 5 5 5 5 5 4 4 4 3 4 5 7 8 8 7 8 10 9 8 8 8 9 10 11 13 12 12 13 12 10 9 9 7 6 6 6 7 7 6 8 9 13 19 23 25 28 27 30 35 35 37 40 43 48 52 53 54 55 58 59 59 58 59 57 57 59 58 53 52 54 55 55 57 60 57 53 51 48 50 54 57 60
6 6 5 5 5 5 5 5 5 5 5 5 5 4 4 5 7 8 7 7 7 8 10 10 9 8 9 10 11 13 14 11 11 13 13 12 11 10 9 6 6 7 7 7 6 6 8 12 16 20 24 26 27 29 34 35 35 35 39 46 50 53 53 54 56 60 60 59 60 57 56 58 55 50 50 52 53 55 57 59 59 55 49 46 48 53 57 59
5 5 5 5 5 5 5 4 5 5 5 5 5 4 5 7 8 8 7 7 7 8 9 10 9 9 9 10 13 14 12 11 13 14 14 13 11 11 9 6 6 7 7 7 6 6 8 11 13 17 21 24 26 28 33 36 33 31 36 43 48 51 52 52 53 57 60 60 59 57 55 56 54 51 51 50 51 56 58 60 61 57 50 47 47 51 54 57
5 5 5 5 5 4 4 4 4 4 4 4 4 5 6 7 8 7 7 7 7 8 9 10 10 10 9 10 15 15 11 13 15 15 15 14 12 11 9 7 6 6 7 7 7 6 7 8 9 13 18 22 25 26 29 32 31 31 32 37 44 49 50 50 52 53 56 58 57 55 55 56 55 54 54 52 54 57 59 61 62 59 52 49 49 50 52 53
5 5 5 5 4 4 4 4 4 3 4 3 4 5 6 7 6 6 6 7 8 9 10 10 11 12 10 10 15 13 9 12 15 15 15 14 14 12 10 8 6 6 6 6 6 6 6 6 8 12 15 18 20 23 25 28 30 31 31 33 40 46 46 46 48 49 51 56 57 54 54 56 56 54 54 55 57 58 58 60 61 59 54 50 49 50 51 52
6 5 5 5 5 4 4 4 3 3 3 3 4 6 6 7 6 6 6 7 9 10 9 9 10 13 13 11 12 10 8 10 13 15 14 14 16 15 12 8 7 6 6 7 7 6 6 6 9 11 13 15 17 20 24 27 29 31 34 35 37 41 42 42 44 47 49 52 57 58 56 58 58 55 56 55 57 59 58 58 61 61 57 54 53 50 50 51
6 6 6 6 5 4 4 4 4 4 4 4 5 6 7 6 6 6 6 8 10 10 8 7 8 12 15 13 9 6 7 9 12 14 14 14 16 18 15 10 8 8 6 6 7 7 6 7 10 10 11 13 16 20 22 25 30 33 36 38 39 41 40 39 42 45 46 48 55 59 58 59 58 56 60 57 55 59 58 57 61 63 60 58 56 52 51 50
6 6 6 5 5 4 5 4 3 4 4 5 6 7 7 6 6 5 7 10 11 9 9 8 9 13 15 12 6 5 6 7 11 15 14 15 18 20 19 14 9 8 8 8 8 8 7 8 10 10 10 12 14 19 23 25 30 34 34 36 40 42 38 38 41 42 44 46 51 56 57 57 56 55 59 56 53 57 58 57 61 63 61 58 57 55 53 50
7 6 6 6 5 4 4 4 3 4 4 5 7 7 7 7 6 5 8 13 13 11 9 8 11 15 17 13 7 6 7 6 10 14 15 15 18 21 21 18 12 9 9 9 9 8 8 9 10 8 8 11 15 20 24 27 30 31 32 33 37 40 37 35 38 39 41 44 46 52 55 54 53 53 54 53 52 56 57 56 59 62 60 57 56 56 54 51
7 7 6 6 5 5 4 4 3 4 4 5 7 7 8 7 6 5 10 15 15 11 7 10 15 18 20 15 9 9 9 9 10 13 14 15 18 21 21 21 16 12 10 10 10 9 10 11 11 8 8 12 18 22 26 30 31 30 31 32 32 35 36 35 36 36 37 41 42 47 53 51 52 53 52 52 53 54 56 56 57 60 58 57 56 55 54 52
7 7 7 6 6 5 5 4 4 4 4 6 7 7 8 7 5 6 11 15 13 9 8 13 19 20 18 12 10 13 12 11 11 12 13 13 17 21 22 22 19 15 11 12 13 11 11 12 11 9 10 14 20 24 29 32 31 30 29 30 30 31 34 36 35 35 36 39 40 42 47 47 49 53 52 51 52 52 54 54 55 57 57 57 56 54 52 51
8 7 7 6 6 6 5 5 4 5 5 7 8 7 7 5 4 8 12 12 9 9 13 19 21 18 14 10 10 13 13 11 9 9 11 12 15 20 23 23 20 17 15 16 15 13 12 11 10 10 12 17 22 25 28 28 27 28 28 28 29 29 31 34 34 35 37 38 39 42 45 45 46 50 50 49 49 50 52 53 54 55 56 57 56 54 52 50
10 9 7 7 7 6 6 5 5 6 7 8 9 7 6 4 5 10 12 11 10 11 14 19 18 13 11 10 9 9 9 10 8 7 9 11 15 20 23 22 20 18 18 18 16 14 12 12 12 12 14 17 20 22 24 23 23 26 27 27 28 28 29 31 32 35 37 38 39 42 45 45 45 47 47 47 48 49 50 52 53 54 55 56 56 54 52 51
11 10 8 7 6 6 6 6 6 7 8 10 9 7 6 7 8 10 10 11 13 13 12 14 13 10 9 9 9 9 9 9 9 8 8 10 15 21 23 22 21 22 20 18 16 14 13 14 13 11 10 11 15 21 23 23 23 24 26 26 26 27 27 28 32 34 35 36 37 42 48 49 47 45 44 45 47 47 49 52 52 53 53 54 55 53 52 52
10 10 9 8 7 7 7 6 7 8 10 11 9 7 9 11 10 10 10 11 13 14 13 13 12 11 9 7 8 11 11 10 10 10 9 10 16 21 23 23 23 23 21 19 17 14 14 14 12 9 8 10 16 22 23 23 22 23 25 24 24 25 25 26 31 35 34 33 34 40 49 51 47 46 45 44 45 47 49 50 51 51 52 53 53 52 51 51
9 9 9 9 8 8 7 7 8 9 9 9 8 8 11 11 11 11 10 10 12 13 13 14 14 12 10 8 8 9 11 12 11 12 12 12 16 20 22 24 24 23 23 22 20 17 16 15 11 9 11 15 19 22 22 22 22 22 23 24 23 22 23 25 29 33 34 33 33 37 45 48 44 45 46 42 43 48 48 48 47 50 51 51 52 51 50 51
10 9 9 9 9 9 8 8 8 8 7 8 8 9 10 10 11 11 10 10 12 14 15 16 16 13 11 9 9 8 9 11 12 14 15 15 16 19 21 23 24 24 25 25 23 19 17 14 10 12 15 18 21 22 21 21 21 22 23 23 22 21 22 24 27 32 33 31 32 34 39 42 42 44 43 38 42 48 48 47 47 48 49 50 51 50 48 50
9 9 9 9 9 9 9 9 9 8 8 8 8 10 10 10 11 10 10 10 13 16 17 17 17 15 12 11 11 10 8 9 11 16 18 17 18 19 20 22 24 26 25 26 25 21 18 15 13 14 18 20 21 22 21 21 21 21 21 22 20 20 20 21 26 30 31 30 30 30 34 39 43 45 40 36 43 47 47 48 48 49 49 49 52 51 49 50
8 9 10 9 9 9 9 10 10 9 9 9 10 11 10 11 11 10 10 12 17 19 18 17 19 17 14 14 12 11 10 9 10 15 18 18 18 20 20 21 23 25 25 27 28 25 20 18 17 17 19 22 23 22 21 20 20 20 20 19 18 18 19 20 25 30 31 30 30 29 32 38 42 41 36 36 43 47 46 46 46 47 48 50 51 50 50 50
8 9 9 9 9 9 10 11 11 11 12 11 12 12 12 11 11 10 12 16 19 17 16 17 18 19 16 14 13 11 10 9 9 14 17 19 19 20 21 21 21 23 24 26 29 27 23 20 22 21 20 23 24 23 21 19 20 19 17 16 16 18 19 19 23 27 30 32 31 29 32 36 41 38 33 35 40 41 42 43 43 44 47 48 48 49 50 50
9 10 10 11 10 9 11 12 12 14 14 14 15 14 13 12 11 10 14 21 20 16 15 16 18 19 18 16 15 13 12 10 9 12 16 19 19 19 21 22 21 22 22 26 28 26 24 23 24 22 21 22 23 22 19 18 19 17 14 15 17 18 18 19 22 25 27 31 30 29 29 31 38 36 31 34 37 37 39 40 40 43 45 45 45 48 49 48
10 11 12 12 11 12 14 13 13 15 16 16 16 15 14 13 11 13 17 22 22 16 15 16 17 18 19 19 18 17 16 12 11 13 16 19 19 20 22 23 23 23 22 25 27 24 24 25 24 24 23 21 21 17 16 17 18 14 13 15 17 19 19 18 22 25 27 31 30 28 27 27 32 32 29 33 36 35 35 37 38 40 41 42 44 46 47 47
11 13 13 13 14 15 16 15 15 16 16 17 16 15 15 12 12 17 21 22 20 17 15 15 15 16 18 21 21 19 17 14 14 15 16 19 21 22 23 23 25 25 24 23 25 24 24 25 26 26 25 21 20 17 16 18 18 14 14 15 14 17 19 19 22 26 31 34 30 25 26 26 28 29 28 33 36 32 31 32 34 35 37 39 41 44 45 46
13 15 15 15 17 18 18 17 17 17 17 17 17 16 14 12 16 22 21 20 18 16 15 15 13 14 17 21 24 22 17 16 16 16 18 22 23 23 23 24 26 26 25 24 25 27 27 28 29 29 26 23 22 21 19 18 16 15 16 16 15 16 19 20 21 28 37 35 25 23 26 25 25 26 26 29 32 31 30 30 32 34 35 36 38 41 44 44
16 18 16 18 20 19 19 19 20 19 18 18 18 17 14 15 23 26 20 17 18 17 16 15 13 13 15 20 25 25 19 17 19 18 20 24 26 27 27 29 30 28 26 26 26 28 29 32 33 32 30 29 27 24 22 21 17 18 20 19 19 19 18 21 22 28 37 34 24 22 25 24 24 23 23 24 25 27 29 30 32 34 34 36 36 37 41 43
19 20 20 21 22 22 23 24 23 21 20 20 19 17 17 18 25 28 22 18 20 20 17 16 15 14 16 19 22 25 23 21 23 23 23 27 32 34 34 36 36 32 29 27 27 28 31 32 34 34 34 33 32 28 25 25 22 22 24 23 24 24 24 25 25 25 30 30 26 25 24 22 21 19 19 21 22 24 27 28 31 33 34 35 35 35 37 40
24 26 27 28 29 30 30 28 27 25 23 22 20 19 23 25 27 29 26 22 22 21 18 17 17 15 17 20 21 25 27 26 28 27 25 29 34 37 38 37 35 34 32 29 27 28 29 29 30 34 35 32 32 30 27 26 25 24 25 26 26 28 31 31 27 25 26 25 23 23 24 21 18 16 16 18 20 21 23 25 29 33 34 34 34 34 35 38
30 32 34 36 37 37 36 33 31 29 27 25 24 27 31 33 32 30 27 25 24 21 19 18 18 15 15 18 22 26 29 31 34 31 27 29 33 35 38 37 36 36 34 31 30 29 28 27 25 27 30 30 30 29 27 25 24 23 22 23 24 23 26 28 25 24 24 22 18 19 22 20 17 17 16 16 18 19 20 22 24 31 36 36 35 35 34 36
32 33 35 39 40 38 37 35 32 30 28 26 29 34 36 37 36 31 29 27 24 23 21 19 18 17 16 15 17 22 28 34 39 36 30 32 35 36 37 38 39 38 36 37 37 33 29 24 20 22 24 27 28 27 27 28 25 23 22 24 23 19 19 23 22 20 20 19 16 16 20 20 17 17 17 16 18 18 19 20 21 25 33 37 38 37 35 35
33 33 34 37 39 37 36 34 30 28 29 30 36 41 38 36 34 32 32 29 26 25 23 21 21 21 20 17 15 18 24 32 41 41 34 34 38 38 37 38 39 39 40 43 42 40 39 30 22 26 25 23 27 28 28 30 27 25 25 25 22 18 18 22 22 20 18 17 15 14 16 17 15 15 15 15 17 18 18 19 20 21 27 33 35 35 36 36
33 32 32 34 35 36 36 34 30 29 31 36 43 45 42 35 30 32 35 33 30 29 26 26 25 24 23 22 19 20 23 28 41 47 39 37 44 46 43 41 40 40 41 43 44 45 47 39 28 28 27 23 26 30 30 30 29 27 25 22 21 22 21 21 23 22 20 20 17 14 14 14 15 17 16 15 16 18 18 18 19 19 23 28 29 28 32 34
33 31 32 33 34 33 34 34 30 28 33 41 46 48 44 36 31 32 35 37 36 34 31 29 28 27 26 26 24 22 23 27 37 49 45 42 48 53 53 50 46 44 41 42 45 45 47 46 33 25 26 25 26 31 32 30 29 28 23 21 23 25 22 20 23 23 21 23 20 16 15 14 15 17 16 14 14 17 18 18 18 18 20 24 24 24 26 30
34 33 34 34 33 32 32 34 32 30 35 43 50 51 46 38 36 34 34 39 40 39 37 34 31 30 28 27 26 24 25 26 31 44 52 50 50 54 58 56 52 50 45 42 43 45 49 51 39 26 27 28 28 30 31 28 26 26 25 24 24 24 21 20 20 20 22 26 23 17 15 14 15 15 13 13 13 16 19 20 19 18 18 19 21 21 22 25
38 37 36 35 33 32 31 32 33 35 38 44 49 51 46 41 41 38 37 42 45 45 44 40 36 34 31 30 30 27 26 27 27 36 51 56 51 52 58 58 56 55 50 43 43 45 49 52 45 32 29 30 30 29 27 25 26 26 26 26 24 22 22 20 18 18 21 27 28 22 16 12 14 15 13 12 12 14 18 20 19 18 18 17 18 19 19 21
43 41 40 38 35 34 32 33 37 40 41 45 49 49 48 46 44 43 43 46 52 53 50 45 40 37 34 33 32 29 27 29 29 30 42 56 55 53 57 59 59 59 56 50 46 46 49 53 49 40 35 34 31 27 27 28 29 28 27 25 23 22 22 23 23 20 18 22 26 24 16 11 12 13 11 12 12 12 14 17 19 19 18 17 17 18 19 19
51 49 43 42 41 36 35 38 42 43 44 49 53 52 52 50 47 46 49 54 58 58 53 47 42 39 38 35 33 31 29 32 35 33 37 52 58 55 56 60 61 62 60 57 52 48 50 54 51 43 38 35 29 26 29 32 32 31 28 25 23 23 23 23 24 21 17 18 21 21 17 12 12 11 9 9 11 10 12 15 17 18 17 16 17 18 19 19
59 56 49 46 43 38 40 46 49 49 50 53 56 56 54 52 50 49 55 62 63 60 56 51 45 41 40 39 36 35 34 35 40 40 36 44 54 58 60 61 62 64 61 58 57 53 52 52 48 42 37 31 26 27 29 31 33 33 32 28 25 24 21 21 23 22 20 18 18 19 17 12 12 15 13 11 11 11 11 12 14 16 15 15 15 16 18 20
60 60 54 50 45 41 45 52 53 55 57 58 60 60 57 54 52 53 62 69 67 65 62 54 48 44 42 42 40 37 37 37 41 42 39 38 45 55 61 61 61 64 61 61 64 61 56 53 48 50 50 38 28 29 32 37 39 38 37 34 28 25 22 22 24 24 22 19 16 18 16 11 13 17 16 16 16 15 14 13 13 14 14 13 14 14 16 20
64 63 59 53 49 46 50 55 56 59 62 64 65 63 60 57 55 58 68 74 72 69 65 56 51 50 47 44 43 39 37 38 41 43 42 39 38 44 56 60 59 62 64 65 67 63 58 56 51 54 62 53 41 41 44 48 47 41 38 35 31 27 24 23 25 24 22 20 18 16 14 11 12 13 12 15 17 16 16 14 12 13 13 13 14 13 15 17
68 68 64 60 55 54 57 58 60 64 66 69 68 65 62 59 56 58 66 72 71 68 64 59 55 54 52 48 46 43 39 40 43 44 44 42 37 37 48 58 59 62 66 67 65 62 60 59 54 52 55 53 49 47 46 48 47 42 38 34 32 31 28 25 25 23 22 22 19 16 14 13 12 10 10 14 15 17 17 15 13 13 13 14 15 14 14 15
72 72 70 68 64 63 66 66 65 68 68 69 70 66 62 58 55 58 64 69 71 68 65 62 58 57 57 54 50 48 44 42 42 42 40 40 38 35 41 54 61 62 66 66 65 65 63 61 56 51 48 46 44 43 43 44 45 43 41 37 34 33 32 28 24 22 23 22 19 19 19 15 12 12 14 15 15 17 18 17 15 14 14 16 15 15 14 15
75 74 73 73 71 71 74 73 70 71 70 68 68 67 64 60 57 61 66 67 68 67 65 64 61 60 60 58 54 52 48 45 42 40 38 39 38 36 39 51 60 61 63 66 67 65 64 62 57 51 47 43 40 41 45 45 43 43 42 39 37 35 33 30 25 22 22 21 18 22 23 16 12 15 17 18 17 16 18 19 18 15 17 18 17 16 15 15
79 78 78 77 77 76 78 76 72 72 72 68 67 68 68 65 61 62 67 69 71 69 65 66 66 63 62 60 58 55 52 50 47 43 41 41 41 41 45 54 63 64 63 67 69 67 66 65 61 54 48 43 40 42 46 47 45 43 44 44 41 38 34 30 26 23 22 21 20 23 24 18 13 16 19 19 18 17 18 21 21 19 20 21 17 17 16 16
83 85 84 84 83 81 80 79 75 74 74 70 70 71 70 68 64 62 64 69 74 75 72 71 71 67 64 62 59 56 53 51 51 48 46 45 44 46 52 58 65 68 65 67 71 70 68 67 63 57 51 45 43 45 46 48 48 49 52 51 44 38 32 28 26 25 23 22 23 24 24 19 16 20 23 22 22 21 20 22 23 21 21 21 19 17 17 16
86 89 89 88 86 83 81 80 77 77 78 74 72 73 72 70 67 64 64 66 69 72 72 71 70 66 64 62 60 57 53 50 50 49 47 48 46 46 51 55 62 68 66 68 73 73 71 69 66 62 58 51 48 47 47 50 54 57 60 58 48 40 34 30 31 32 28 24 25 25 23 20 20 25 27 24 24 24 23 24 25 22 21 21 20 19 18 16
88 91 91 89 87 84 82 82 79 79 80 78 75 74 73 72 69 68 72 73 70 68 66 67 68 65 64 62 59 56 52 48 47 46 46 47 46 44 45 48 56 65 66 68 74 76 74 71 69 66 62 56 52 48 50 57 62 64 65 61 55 49 42 39 40 39 36 31 29 26 23 23 26 28 27 25 23 22 23 23 23 22 21 20 19 19 19 18